• în România
  • Lista ţărilor
  • Pe 7 zile
  • Temperatura apei
  • Hartă satelitară
  • Meteo pe hartă
  • Widget-uri
  • user-avatar
    Intrare

    Meteo pe oră la Hmeli

    Astăzi, 20 Iunie, Miercuri

    Timp Temperatura Precipitaţii Vânt Presiune Umiditate
    00:00 +14°C° 0 mm 3 m/s 742 mmHg 92%
    01:00 +13°C° 0 mm 3 m/s 742 mmHg 93%
    02:00 +12°C° 0 mm 3 m/s 742 mmHg 96%
    03:00 +12°C° 0 mm 3 m/s 742 mmHg 94%
    04:00 +12°C° 0 mm 3 m/s 742 mmHg 92%
    05:00 +12°C° 0 mm 3 m/s 742 mmHg 90%
    06:00 +14°C° 0 mm 4 m/s 742 mmHg 79%
    07:00 +15°C° 0 mm 4 m/s 742 mmHg 68%
    08:00 +17°C° 0 mm 5 m/s 742 mmHg 57%
    09:00 +19°C° 0 mm 5 m/s 742 mmHg 52%
    10:00 +20°C° 0 mm 6 m/s 742 mmHg 48%
    11:00 +21°C° 0 mm 6 m/s 742 mmHg 44%
    12:00 +22°C° 0 mm 6 m/s 742 mmHg 42%
    13:00 +22°C° 0 mm 6 m/s 742 mmHg 41%
    14:00 +23°C° 0 mm 6 m/s 742 mmHg 39%
    15:00 +22°C° 0 mm 6 m/s 742 mmHg 40%
    16:00 +22°C° 0 mm 5 m/s 742 mmHg 42%
    17:00 +21°C° 0 mm 5 m/s 742 mmHg 43%
    18:00 +20°C° 0 mm 4 m/s 742 mmHg 51%
    19:00 +18°C° 0 mm 3 m/s 742 mmHg 60%
    20:00 +17°C° 0 mm 2 m/s 743 mmHg 68%
    21:00 +15°C° 0 mm 2 m/s 743 mmHg 71%
    22:00 +14°C° 0 mm 2 m/s 743 mmHg 75%
    23:00 +13°C° 0 mm 2 m/s 743 mmHg 78%

    Mâine, 21 Iunie, Joi

    Timp Temperatura Precipitaţii Vânt Presiune Umiditate
    00:00 +12°C° 0 mm 2 m/s 743 mmHg 80%
    01:00 +12°C° 0 mm 2 m/s 743 mmHg 83%
    02:00 +10°C° 0 mm 2 m/s 744 mmHg 85%
    03:00 +12°C° 0 mm 2 m/s 744 mmHg 83%
    04:00 +11°C° 0 mm 3 m/s 743 mmHg 81%
    05:00 +12°C° 0 mm 3 m/s 743 mmHg 79%
    06:00 +14°C° 0 mm 4 m/s 743 mmHg 75%
    07:00 +17°C° 0 mm 4 m/s 743 mmHg 71%
    08:00 +19°C° 0 mm 5 m/s 742 mmHg 66%
    09:00 +20°C° 0 mm 5 m/s 742 mmHg 62%
    10:00 +22°C° 0 mm 5 m/s 742 mmHg 58%
    11:00 +23°C° 0 mm 5 m/s 742 mmHg 53%
    12:00 +25°C° 0 mm 5 m/s 742 mmHg 52%
    13:00 +26°C° 0 mm 5 m/s 741 mmHg 50%
    14:00 +27°C° 0 mm 5 m/s 741 mmHg 48%
    15:00 +26°C° 0 mm 5 m/s 741 mmHg 50%
    16:00 +26°C° 0 mm 5 m/s 740 mmHg 52%
    17:00 +26°C° 0 mm 4 m/s 740 mmHg 53%
    18:00 +25°C° 0 mm 4 m/s 740 mmHg 61%
    19:00 +22°C° 0 mm 3 m/s 739 mmHg 68%
    20:00 +20°C° 0 mm 3 m/s 739 mmHg 76%
    21:00 +20°C° 0 mm 3 m/s 739 mmHg 78%
    22:00 +19°C° 0 mm 3 m/s 739 mmHg 81%
    23:00 +18°C° 0 mm 3 m/s 739 mmHg 83%

    Poimâine, 22 Iunie, Vineri

    Timp Temperatura Precipitaţii Vânt Presiune Umiditate
    00:00 +18°C° 0 mm 3 m/s 738 mmHg 84%
    01:00 +18°C° 0 mm 4 m/s 738 mmHg 84%
    02:00 +18°C° 0 mm 4 m/s 737 mmHg 84%
    03:00 +18°C° 0 mm 4 m/s 736 mmHg 84%
    04:00 +19°C° 0 mm 4 m/s 736 mmHg 84%
    05:00 +19°C° 0 mm 5 m/s 735 mmHg 84%
    06:00 +20°C° 0,3 mm 5 m/s 735 mmHg 84%
    07:00 +20°C° 0,3 mm 5 m/s 735 mmHg 85%
    08:00 +21°C° 0,3 mm 5 m/s 734 mmHg 85%
    09:00 +21°C° 0,9 mm 5 m/s 734 mmHg 88%
    10:00 +20°C° 0,9 mm 5 m/s 735 mmHg 90%
    11:00 +19°C° 0,9 mm 5 m/s 735 mmHg 93%
    12:00 +17°C° 0,3 mm 5 m/s 735 mmHg 93%
    13:00 +15°C° 0,3 mm 4 m/s 736 mmHg 93%
    14:00 +13°C° 0,3 mm 3 m/s 737 mmHg 94%
    15:00 +13°C° 0,1 mm 3 m/s 737 mmHg 93%
    16:00 +13°C° 0,1 mm 3 m/s 737 mmHg 93%
    17:00 +13°C° 0,1 mm 3 m/s 737 mmHg 92%
    18:00 +13°C° 0 mm 3 m/s 738 mmHg 92%
    19:00 +12°C° 0 mm 3 m/s 738 mmHg 92%
    20:00 +12°C° 0 mm 3 m/s 739 mmHg 92%
    21:00 +12°C° 0 mm 3 m/s 739 mmHg 92%
    22:00 +12°C° 0 mm 3 m/s 739 mmHg 93%
    23:00 +11°C° 0 mm 3 m/s 739 mmHg 93%

    23 Iunie, Sâmbătă

    Timp Temperatura Precipitaţii Vânt Presiune Umiditate
    00:00 +12°C° 0 mm 2 m/s 739 mmHg 93%
    01:00 +12°C° 0 mm 2 m/s 739 mmHg 92%
    02:00 +12°C° 0 mm 2 m/s 739 mmHg 92%
    03:00 +12°C° 0 mm 2 m/s 739 mmHg 91%
    04:00 +12°C° 0 mm 2 m/s 740 mmHg 91%
    05:00 +12°C° 0 mm 2 m/s 740 mmHg 90%
    06:00 +13°C° 0 mm 2 m/s 740 mmHg 86%
    07:00 +13°C° 0 mm 2 m/s 740 mmHg 81%
    08:00 +14°C° 0 mm 2 m/s 740 mmHg 76%
    09:00 +15°C° 0 mm 2 m/s 740 mmHg 71%
    10:00 +16°C° 0 mm 2 m/s 740 mmHg 66%
    11:00 +17°C° 0 mm 2 m/s 741 mmHg 61%
    12:00 +17°C° 0 mm 2 m/s 740 mmHg 59%
    13:00 +19°C° 0 mm 1 m/s 740 mmHg 57%
    14:00 +19°C° 0 mm 1 m/s 740 mmHg 55%
    15:00 +19°C° 0 mm 1 m/s 740 mmHg 57%
    16:00 +19°C° 0 mm 1 m/s 740 mmHg 58%
    17:00 +17°C° 0 mm 0 m/s 740 mmHg 60%
    18:00 +18°C° 0 mm 1 m/s 740 mmHg 65%
    19:00 +15°C° 0 mm 1 m/s 740 mmHg 71%
    20:00 +14°C° 0 mm 1 m/s 740 mmHg 76%
    21:00 +13°C° 0 mm 1 m/s 740 mmHg 80%
    22:00 +12°C° 0 mm 1 m/s 740 mmHg 84%
    23:00 +11°C° 0 mm 1 m/s 740 mmHg 88%

    24 Iunie, Duminică

    Timp Temperatura Precipitaţii Vânt Presiune Umiditate
    00:00 +11°C° 0 mm 1 m/s 740 mmHg 90%
    01:00 +10°C° 0 mm 1 m/s 740 mmHg 91%
    02:00 +10°C° 0 mm 1 m/s 740 mmHg 93%
    03:00 +10°C° 0 mm 1 m/s 740 mmHg 91%
    04:00 +11°C° 0 mm 1 m/s 740 mmHg 89%
    05:00 +11°C° 0 mm 1 m/s 740 mmHg 87%
    06:00 +13°C° 0,1 mm 1 m/s 740 mmHg 81%
    07:00 +15°C° 0,1 mm 2 m/s 740 mmHg 75%
    08:00 +16°C° 0,1 mm 2 m/s 741 mmHg 69%
    09:00 +17°C° 0,4 mm 2 m/s 741 mmHg 69%
    10:00 +18°C° 0,4 mm 2 m/s 741 mmHg 68%
    11:00 +18°C° 0,4 mm 2 m/s 741 mmHg 68%
    12:00 +18°C° 0,8 mm 3 m/s 741 mmHg 70%
    13:00 +18°C° 0,8 mm 3 m/s 742 mmHg 72%
    14:00 +18°C° 0,8 mm 3 m/s 742 mmHg 75%
    15:00 +18°C° 0,5 mm 3 m/s 742 mmHg 74%
    16:00 +18°C° 0,5 mm 3 m/s 742 mmHg 74%
    17:00 +18°C° 0,5 mm 3 m/s 743 mmHg 73%
    18:00 +17°C° 0,2 mm 2 m/s 743 mmHg 79%
    19:00 +16°C° 0,2 mm 2 m/s 743 mmHg 85%
    20:00 +14°C° 0,2 mm 1 m/s 743 mmHg 91%
    21:00 +14°C° 0,1 mm 1 m/s 743 mmHg 92%
    22:00 +13°C° 0,1 mm 1 m/s 743 mmHg 94%
    23:00 +12°C° 0,1 mm 1 m/s 744 mmHg 96%

    25 Iunie, Luni

    Timp Temperatura Precipitaţii Vânt Presiune Umiditate
    00:00 +11°C° 0 mm 1 m/s 744 mmHg 96%
    01:00 +11°C° 0 mm 1 m/s 744 mmHg 97%
    02:00 +10°C° 0 mm 1 m/s 744 mmHg 97%
    03:00 +11°C° 0 mm 1 m/s 744 mmHg 97%
    04:00 +11°C° 0 mm 1 m/s 745 mmHg 96%
    05:00 +11°C° 0 mm 1 m/s 745 mmHg 96%
    06:00 +13°C° 0 mm 2 m/s 745 mmHg 89%
    07:00 +15°C° 0 mm 2 m/s 745 mmHg 83%
    08:00 +16°C° 0 mm 2 m/s 746 mmHg 77%
    09:00 +18°C° 0,1 mm 2 m/s 746 mmHg 70%
    10:00 +19°C° 0,1 mm 3 m/s 746 mmHg 63%
    11:00 +20°C° 0,1 mm 3 m/s 746 mmHg 56%
    12:00 +20°C° 0,3 mm 3 m/s 746 mmHg 55%
    13:00 +21°C° 0,3 mm 3 m/s 746 mmHg 53%
    14:00 +21°C° 0,3 mm 3 m/s 746 mmHg 51%
    15:00 +20°C° 0,4 mm 3 m/s 746 mmHg 59%
    16:00 +20°C° 0,4 mm 3 m/s 746 mmHg 66%
    17:00 +19°C° 0,4 mm 2 m/s 746 mmHg 74%
    18:00 +17°C° 0,3 mm 2 m/s 746 mmHg 79%
    19:00 +16°C° 0,3 mm 2 m/s 746 mmHg 84%
    20:00 +15°C° 0,3 mm 1 m/s 746 mmHg 89%
    21:00 +14°C° 0 mm 1 m/s 746 mmHg 91%
    22:00 +13°C° 0 mm 2 m/s 747 mmHg 93%
    23:00 +12°C° 0 mm 2 m/s 747 mmHg 95%
    Arată mai mult